"Pseudo-MPEC" for orA5076

Created 2026 Aug 26 0:35:14 UT using Find_Orb

Click here for an explanation of pseudo-MPECs

 
 Astrometry: 
     orA5076*KB2026 08 22.19533602 15 53.285+16 39 36.90   ~8OFo 21.5 gZNEOCPJ43
     orA5076 KB2026 08 22.20255802 15 49.133+16 37 57.14   ~8OFo 21.5 gZNEOCPJ43
     orA5076 KB2026 08 22.20976902 15 45.192+16 36 19.01   ~8OFo 21.0 gZNEOCPJ43

Station data:
(J43) Oukaïmeden Observatory, Marrakech  (N31.206437 W7.866460)  Morocco.
   Observer C. Rinner. Measurers C. Rinner, M. Ory. 0.5-m f/3 reflector + CCD.

Orbital elements:  orA5076
   Perihelion 2026 Nov 19.610998 +/- 64.3 TT = 14:39:50.2 (JD 2461364.110998)
Epoch 2026 Aug 22.0 TT = JDT 2461274.5   Earth MOID: 0.0461      AutoNEOCP
M 243.106866929 +/- 100             (J2000 ecliptic)
n   1.304450738 +/- 0.922           Peri.  328.703109 +/- 80
a   0.829565967 +/- 0.391           Node   154.963424 +/- 4.2
e   0.41457465 +/- 0.208            Incl.  142.915727 +/- 52
P   0.756/275.973d         H 23.01  G  0.15   U 12.7  SR
q 0.485648941 +/- 0.339    Q 1.173482994 +/- 12.3
From 3 observations 2026 Aug. 22 (20.8 min); mean residual 0".60
Residuals in arcseconds: 
260822 J43  .52+  .30+    260822 J43  1.0-  .60-    260822 J43  .52+  .30+    

Ephemerides (geocentric):
Date (UTC) HH   RA             Dec           delta  r     elong  mag " sig PA
---- --------  ------------   ------------  ------ ------ -----  --- --------
2026 08 26 01  00 23 08.217   -31 09 12.61  .04788 1.0500 144.4 17.9  56d 103
2026 08 26 02  00 19 23.660   -32 20 18.68  .04759 1.0498 144.6 17.9  55d 103
2026 08 26 03  00 15 30.373   -33 31 49.44  .04732 1.0496 144.6 17.9  54d 103
2026 08 26 04  00 11 27.982   -34 43 37.35  .04709 1.0494 144.7 17.9  54d 103
2026 08 26 05  00 07 16.104   -35 55 34.38  .04688 1.0492 144.6 17.9  53d 103
2026 08 26 06  00 02 54.351   -37 07 32.05  .04671 1.0490 144.5 17.9  52d 104
2026 08 26 07  23 58 22.334   -38 19 21.41  .04656 1.0488 144.4 17.9  52d 104
2026 08 26 08  23 53 39.663   -39 30 53.18  .04645 1.0486 144.1 17.9  51d 104
2026 08 26 09  23 48 45.955   -40 41 57.74  .04638 1.0484 143.9 17.9  50d 104
2026 08 26 10  23 43 40.837   -41 52 25.19  .04633 1.0482 143.5 17.9  49d 104
2026 08 26 11  23 38 23.951   -43 02 05.47  .04632 1.0480 143.1 17.9  49d 104
2026 08 26 12  23 32 54.959   -44 10 48.40  .04634 1.0478 142.7 17.9  48d 105
2026 08 26 13  23 27 13.556   -45 18 23.74  .04639 1.0476 142.2 17.9  47d 105
2026 08 26 14  23 21 19.472   -46 24 41.32  .04647 1.0474 141.7 17.9  46d 105
2026 08 26 15  23 15 12.485   -47 29 31.09  .04659 1.0472 141.1 18.0  45d 105
2026 08 26 16  23 08 52.430   -48 32 43.20  .04673 1.0470 140.5 18.0  44d 106
2026 08 26 17  23 02 19.211   -49 34 08.12  .04691 1.0468 139.8 18.0  44d 106
2026 08 26 18  22 55 32.809   -50 33 36.72  .04712 1.0466 139.1 18.0  43d 106
2026 08 26 19  22 48 33.299   -51 31 00.31  .04737 1.0464 138.4 18.1  42d 106
2026 08 26 20  22 41 20.855   -52 26 10.79  .04764 1.0462 137.7 18.1  41d 107
2026 08 26 21  22 33 55.767   -53 19 00.67  .04794 1.0460 136.9 18.1  41d 107
2026 08 26 22  22 26 18.447   -54 09 23.20  .04827 1.0458 136.1 18.2  40d 107
2026 08 26 23  22 18 29.438   -54 57 12.40  .04863 1.0456 135.3 18.2  39d 108
2026 08 27 00  22 10 29.419   -55 42 23.14  .04902 1.0454 134.5 18.2  38d 108
2026 08 27 01  22 02 19.210   -56 24 51.20  .04943 1.0452 133.7 18.3  38d 108
2026 08 27 02  21 53 59.767   -57 04 33.33  .04987 1.0450 132.9 18.3  37d 109
2026 08 27 03  21 45 32.181   -57 41 27.25  .05034 1.0448 132.0 18.4  37d 109
2026 08 27 04  21 36 57.668   -58 15 31.70  .05083 1.0446 131.2 18.4  36d 109
2026 08 27 05  21 28 17.553   -58 46 46.44  .05135 1.0444 130.4 18.5  36d 110
2026 08 27 06  21 19 33.254   -59 15 12.27  .05189 1.0442 129.5 18.5  35d 110
2026 08 27 07  21 10 46.262   -59 40 50.94  .05245 1.0440 128.7 18.5  35d 110
2026 08 27 08  21 01 58.112   -60 03 45.20  .05304 1.0438 127.9 18.6  35d 110
2026 08 27 09  20 53 10.362   -60 23 58.67  .05365 1.0435 127.1 18.6  34d 110
2026 08 27 10  20 44 24.561   -60 41 35.79  .05428 1.0433 126.2 18.7  34d 111
2026 08 27 11  20 35 42.226   -60 56 41.77  .05492 1.0431 125.5 18.7  34d 111
2026 08 27 12  20 27 04.812   -61 09 22.45  .05559 1.0429 124.7 18.8  33d 111
2026 08 27 13  20 18 33.693   -61 19 44.21  .05628 1.0427 123.9 18.8  33d 111
2026 08 27 14  20 10 10.138   -61 27 53.90  .05698 1.0425 123.1 18.9  33d 111
2026 08 27 15  20 01 55.301   -61 33 58.67  .05771 1.0423 122.4 18.9  33d 111
2026 08 27 16  19 53 50.205   -61 38 05.91  .05845 1.0421 121.6 19.0  33d 111
2026 08 27 17  19 45 55.735   -61 40 23.15  .05920 1.0419 120.9 19.0  33d 111
2026 08 27 18  19 38 12.640   -61 40 57.94  .05997 1.0417 120.2 19.1  33d 111
2026 08 27 19  19 30 41.528   -61 39 57.79  .06076 1.0415 119.5 19.1  33d 110
2026 08 27 20  19 23 22.874   -61 37 30.07  .06156 1.0413 118.8 19.1  33d 110
2026 08 27 21  19 16 17.024   -61 33 41.96  .06237 1.0411 118.1 19.2  33d 110
2026 08 27 22  19 09 24.210   -61 28 40.43  .06320 1.0409 117.5 19.2  33d 110
2026 08 27 23  19 02 44.552   -61 22 32.14  .06404 1.0407 116.8 19.3  33d 110
2026 08 28 00  18 56 18.075   -61 15 23.45  .06489 1.0405 116.2 19.3  33d 109